When you browse on this site, cookies collect data to enhance your experience and personalize the content and advertising you see.
Visit our Privacy Policy to learn more. By continuing to use the site, you agree to this use of cookies and data.
  • En España
  • Lista de países
  • Para 7 días
  • Temperatura del agua
  • Mapa Satelital
  • El tiempo en el mapa
  • Informadores
  • user-avatar
    Iniciar sesión

    Tiempo cada hora Kruhlyk

    Hoy, 22 Marzo, Viernes

    Tiempo Temperatura Precipitaciones Viento Presión Humedad
    00:00 +8°C° 0 mm 3 mps 753 mmHg 73%
    01:00 +8°C° 0 mm 3 mps 753 mmHg 73%
    02:00 +8°C° 0 mm 3 mps 753 mmHg 75%
    03:00 +8°C° 0 mm 3 mps 753 mmHg 75%
    04:00 +7°C° 0 mm 3 mps 753 mmHg 76%
    05:00 +6°C° 0 mm 4 mps 752 mmHg 76%
    06:00 +6°C° 0 mm 4 mps 752 mmHg 76%
    07:00 +6°C° 0 mm 5 mps 752 mmHg 75%
    08:00 +5°C° 0 mm 6 mps 752 mmHg 74%
    09:00 +8°C° 0 mm 6 mps 752 mmHg 72%
    10:00 +9°C° 0 mm 6 mps 752 mmHg 69%
    11:00 +10°C° 0 mm 7 mps 751 mmHg 66%
    12:00 +10°C° 0 mm 7 mps 751 mmHg 67%
    13:00 +11°C° 0 mm 7 mps 751 mmHg 68%
    14:00 +11°C° 0 mm 7 mps 751 mmHg 69%
    15:00 +10°C° 0 mm 7 mps 751 mmHg 70%
    16:00 +10°C° 0 mm 7 mps 751 mmHg 72%
    17:00 +10°C° 0 mm 7 mps 750 mmHg 73%
    18:00 +10°C° 0 mm 7 mps 751 mmHg 71%
    19:00 +9°C° 0 mm 7 mps 751 mmHg 69%
    20:00 +9°C° 0 mm 6 mps 751 mmHg 67%
    21:00 +9°C° 0 mm 6 mps 751 mmHg 66%
    22:00 +8°C° 0 mm 5 mps 752 mmHg 65%
    23:00 +8°C° 0 mm 5 mps 752 mmHg 64%

    Mañana, 23 Marzo, Sábado

    Tiempo Temperatura Precipitaciones Viento Presión Humedad
    00:00 +8°C° 0 mm 5 mps 752 mmHg 63%
    01:00 +7°C° 0 mm 4 mps 752 mmHg 63%
    02:00 +6°C° 0 mm 4 mps 752 mmHg 62%
    03:00 +5°C° 0 mm 4 mps 752 mmHg 62%
    04:00 +4°C° 0 mm 4 mps 751 mmHg 61%
    05:00 +3°C° 0 mm 3 mps 751 mmHg 61%
    06:00 +3°C° 0 mm 4 mps 751 mmHg 57%
    07:00 +4°C° 0 mm 4 mps 751 mmHg 53%
    08:00 +3°C° 0 mm 5 mps 752 mmHg 48%
    09:00 +5°C° 0 mm 5 mps 751 mmHg 43%
    10:00 +5°C° 0 mm 6 mps 751 mmHg 37%
    11:00 +7°C° 0 mm 6 mps 751 mmHg 31%
    12:00 +8°C° 0 mm 6 mps 751 mmHg 29%
    13:00 +9°C° 0 mm 5 mps 750 mmHg 28%
    14:00 +9°C° 0 mm 5 mps 750 mmHg 26%
    15:00 +9°C° 0 mm 5 mps 750 mmHg 26%
    16:00 +9°C° 0 mm 5 mps 750 mmHg 27%
    17:00 +10°C° 0 mm 4 mps 749 mmHg 27%
    18:00 +8°C° 0 mm 4 mps 749 mmHg 31%
    19:00 +8°C° 0 mm 3 mps 750 mmHg 36%
    20:00 +7°C° 0 mm 2 mps 750 mmHg 40%
    21:00 +7°C° 0 mm 2 mps 750 mmHg 42%
    22:00 +7°C° 0 mm 1 mps 750 mmHg 43%
    23:00 +6°C° 0 mm 1 mps 750 mmHg 45%

    Pasado mañana, 24 Marzo, Domingo

    Tiempo Temperatura Precipitaciones Viento Presión Humedad
    00:00 +6°C° 0 mm 1 mps 750 mmHg 46%
    01:00 +6°C° 0 mm 1 mps 750 mmHg 47%
    02:00 +5°C° 0 mm 1 mps 749 mmHg 48%
    03:00 +5°C° 0 mm 1 mps 749 mmHg 49%
    04:00 +5°C° 0 mm 1 mps 748 mmHg 50%
    05:00 +4°C° 0 mm 1 mps 748 mmHg 51%
    06:00 +5°C° 0 mm 1 mps 748 mmHg 49%
    07:00 +6°C° 0 mm 1 mps 748 mmHg 47%
    08:00 +7°C° 0 mm 1 mps 747 mmHg 46%
    09:00 +9°C° 0 mm 1 mps 747 mmHg 41%
    10:00 +10°C° 0 mm 2 mps 747 mmHg 35%
    11:00 +12°C° 0 mm 3 mps 746 mmHg 30%
    12:00 +13°C° 0 mm 4 mps 746 mmHg 35%
    13:00 +14°C° 0 mm 4 mps 746 mmHg 39%
    14:00 +16°C° 0 mm 5 mps 745 mmHg 43%
    15:00 +15°C° 0 mm 5 mps 745 mmHg 51%
    16:00 +13°C° 0 mm 5 mps 745 mmHg 59%
    17:00 +12°C° 0 mm 5 mps 744 mmHg 67%
    18:00 +10°C° 0 mm 5 mps 745 mmHg 69%
    19:00 +10°C° 0 mm 5 mps 745 mmHg 70%
    20:00 +10°C° 0 mm 4 mps 745 mmHg 71%
    21:00 +8°C° 0.2 mm 4 mps 745 mmHg 72%
    22:00 +9°C° 0.2 mm 3 mps 745 mmHg 73%
    23:00 +8°C° 0.2 mm 3 mps 744 mmHg 74%

    25 Marzo, Lunes

    Tiempo Temperatura Precipitaciones Viento Presión Humedad
    00:00 +8°C° 0.4 mm 3 mps 745 mmHg 76%
    01:00 +8°C° 0.4 mm 2 mps 745 mmHg 79%
    02:00 +7°C° 0.4 mm 2 mps 745 mmHg 82%
    03:00 +7°C° 0 mm 2 mps 744 mmHg 80%
    04:00 +5°C° 0 mm 3 mps 744 mmHg 79%
    05:00 +4°C° 0 mm 3 mps 744 mmHg 77%
    06:00 +4°C° 0 mm 3 mps 744 mmHg 74%
    07:00 +4°C° 0 mm 4 mps 744 mmHg 70%
    08:00 +4°C° 0 mm 4 mps 744 mmHg 66%
    09:00 +5°C° 0 mm 4 mps 744 mmHg 60%
    10:00 +6°C° 0 mm 5 mps 744 mmHg 54%
    11:00 +7°C° 0 mm 5 mps 744 mmHg 48%
    12:00 +8°C° 0 mm 5 mps 744 mmHg 47%
    13:00 +8°C° 0 mm 5 mps 743 mmHg 45%
    14:00 +8°C° 0 mm 5 mps 743 mmHg 44%
    15:00 +8°C° 0 mm 5 mps 742 mmHg 43%
    16:00 +8°C° 0 mm 5 mps 742 mmHg 43%
    17:00 +8°C° 0 mm 5 mps 742 mmHg 42%
    18:00 +7°C° 0 mm 4 mps 742 mmHg 46%
    19:00 +7°C° 0 mm 3 mps 742 mmHg 50%
    20:00 +6°C° 0 mm 2 mps 742 mmHg 54%
    21:00 +6°C° 0 mm 2 mps 742 mmHg 55%
    22:00 +5°C° 0 mm 2 mps 742 mmHg 56%
    23:00 +5°C° 0 mm 2 mps 742 mmHg 58%

    26 Marzo, Martes

    Tiempo Temperatura Precipitaciones Viento Presión Humedad
    00:00 +5°C° 0 mm 2 mps 742 mmHg 60%
    01:00 +4°C° 0 mm 2 mps 742 mmHg 62%
    02:00 +4°C° 0 mm 2 mps 742 mmHg 65%
    03:00 +4°C° 0.3 mm 2 mps 742 mmHg 68%
    04:00 +3°C° 0.3 mm 3 mps 742 mmHg 71%
    05:00 +3°C° 0.3 mm 3 mps 742 mmHg 75%
    06:00 +3°C° 0.4 mm 3 mps 742 mmHg 77%
    07:00 +3°C° 0.4 mm 3 mps 743 mmHg 79%
    08:00 +3°C° 0.4 mm 4 mps 743 mmHg 81%
    09:00 +3°C° 0.4 mm 4 mps 744 mmHg 79%
    10:00 +4°C° 0.4 mm 4 mps 744 mmHg 77%
    11:00 +4°C° 0.4 mm 4 mps 745 mmHg 75%
    12:00 +5°C° 0.4 mm 5 mps 745 mmHg 72%
    13:00 +5°C° 0.4 mm 5 mps 746 mmHg 70%
    14:00 +6°C° 0.4 mm 5 mps 746 mmHg 67%
    15:00 +6°C° 0.2 mm 5 mps 746 mmHg 65%
    16:00 +6°C° 0.2 mm 5 mps 747 mmHg 63%
    17:00 +6°C° 0.2 mm 4 mps 747 mmHg 62%
    18:00 +5°C° 0 mm 4 mps 748 mmHg 65%
    19:00 +5°C° 0 mm 3 mps 749 mmHg 68%
    20:00 +5°C° 0 mm 2 mps 749 mmHg 72%
    21:00 +4°C° 0 mm 3 mps 750 mmHg 73%
    22:00 +3°C° 0 mm 3 mps 750 mmHg 75%
    23:00 +3°C° 0 mm 3 mps 751 mmHg 76%

    27 Marzo, Miércoles

    Tiempo Temperatura Precipitaciones Viento Presión Humedad
    00:00 +2°C° 0 mm 3 mps 751 mmHg 78%
    01:00 +2°C° 0 mm 3 mps 752 mmHg 79%
    02:00 +1°C° 0 mm 3 mps 752 mmHg 80%
    03:00 +1°C° 0 mm 3 mps 752 mmHg 82%
    04:00 0°C° 0 mm 3 mps 753 mmHg 83%
    05:00 +1°C° 0 mm 2 mps 753 mmHg 84%
    06:00 0°C° 0 mm 3 mps 753 mmHg 80%
    07:00 +1°C° 0 mm 3 mps 754 mmHg 76%
    08:00 +1°C° 0 mm 3 mps 754 mmHg 72%
    09:00 +3°C° 0 mm 3 mps 754 mmHg 64%
    10:00 +4°C° 0 mm 3 mps 754 mmHg 56%
    11:00 +5°C° 0 mm 3 mps 754 mmHg 47%
    12:00 +7°C° 0 mm 3 mps 753 mmHg 43%
    13:00 +8°C° 0 mm 3 mps 753 mmHg 38%
    14:00 +9°C° 0 mm 3 mps 752 mmHg 34%
    15:00 +9°C° 0 mm 3 mps 752 mmHg 33%
    16:00 +9°C° 0 mm 2 mps 752 mmHg 32%
    17:00 +9°C° 0 mm 2 mps 751 mmHg 32%
    18:00 +8°C° 0 mm 2 mps 752 mmHg 36%
    19:00 +8°C° 0 mm 1 mps 752 mmHg 40%
    20:00 +7°C° 0 mm 1 mps 752 mmHg 44%
    21:00 +6°C° 0 mm 1 mps 752 mmHg 47%
    22:00 +5°C° 0 mm 2 mps 752 mmHg 49%
    23:00 +4°C° 0 mm 2 mps 752 mmHg 52%
    Mostrar más